Lid_Strength_Index
4 4 4 4 5 8 8 7 9 5 7 9 12 12 10 10 10 9 9 9 10 11 11 11 11 11 11 8 8 11 10 14 16 12 11 10 12 14 16 17 17 18 18 16
4 4 4 5 6 6 10 8 8 6 7 11 12 11 10 10 10 11 10 11 11 11 12 13 10 11 8 8 8 12 11 13 15 13 13 11 12 12 14 15 16 17 17 14
4 4 5 5 6 6 8 9 10 9 10 11 11 12 12 12 9 10 10 11 11 11 13 13 12 11 8 8 7 4 7 13 14 15 14 13 13 11 11 14 16 16 15 13
4 4 5 5 6 6 8 10 12 11 12 11 12 12 12 12 11 10 10 11 10 12 13 12 12 11 10 9 6 10 11 15 13 11 10 12 12 11 11 13 13 14 13 13
4 4 4 5 6 6 8 11 12 11 11 12 12 12 13 12 11 11 12 12 10 11 12 12 13 12 13 12 11 13 13 15 15 15 12 12 12 11 13 12 11 12 11 11
4 4 4 5 6 7 9 9 10 10 11 12 13 12 12 10 10 10 9 9 11 12 11 10 10 11 11 12 13 13 14 15 16 17 13 13 15 13 11 10 10 11 13 11
4 4 4 4 5 7 9 9 10 12 13 11 11 10 10 9 10 11 10 10 12 10 9 10 11 12 13 13 13 13 14 15 16 17 15 18 13 9 9 11 10 10 10 9
4 4 4 4 5 6 9 9 10 12 14 11 11 11 11 11 12 12 11 10 10 10 11 12 15 15 15 13 11 12 13 15 15 16 17 14 12 10 10 11 11 9 10 9
5 5 4 4 5 6 9 9 9 10 13 13 10 12 12 13 14 13 12 10 10 10 13 14 17 17 15 14 12 12 12 13 13 16 17 17 13 9 7 8 14 8 8 9
4 5 4 4 4 5 9 9 9 10 12 12 11 12 12 11 13 14 14 11 11 11 13 14 15 14 12 15 15 14 14 14 15 15 16 14 9 8 7 15 14 8 7 8
4 4 3 3 4 4 9 10 9 9 12 11 9 9 11 11 12 14 13 13 12 12 14 14 14 14 12 14 13 14 14 15 15 15 17 17 7 8 12 9 7 7 7 6
4 4 4 4 3 4 6 11 9 8 10 11 9 8 8 9 9 10 12 12 13 11 12 13 13 13 13 14 15 11 14 11 13 12 13 8 7 8 6 6 7 6 7 6
4 4 4 4 4 4 5 11 11 10 10 10 11 10 9 8 8 8 11 12 11 11 10 11 12 13 12 14 13 12 10 9 11 11 10 9 8 7 6 6 6 6 5 5
4 4 4 4 4 4 5 10 11 10 11 13 11 7 9 8 8 8 8 9 9 9 9 11 11 12 10 12 10 11 10 10 11 12 10 9 8 7 6 6 5 5 5 5
4 4 4 5 5 5 9 10 10 9 10 12 12 10 9 8 9 8 9 9 9 9 10 11 11 11 10 10 10 12 10 10 12 12 9 8 8 6 5 6 6 5 6 6
4 4 4 4 5 6 10 9 8 8 8 12 15 12 9 8 8 8 10 9 9 8 9 10 9 8 8 11 12 9 9 9 9 9 7 7 6 6 5 5 5 4 5 5
4 4 4 5 5 8 12 10 7 7 8 10 13 13 10 8 9 9 9 8 8 8 9 9 9 9 8 11 12 8 8 8 8 7 7 8 6 7 5 5 4 4 4 4
4 4 5 5 5 6 8 7 6 7 9 10 14 13 11 8 9 9 9 9 9 9 9 9 9 9 9 12 9 9 8 7 7 7 5 5 5 4 5 4 4 5 5 5
5 5 5 8 9 9 7 4 5 7 9 13 14 15 13 9 10 10 9 9 11 9 9 10 9 11 12 9 9 8 7 8 7 5 5 5 6 5 5 5 5 6 5 5
6 8 9 9 9 4 5 8 10 10 11 12 14 13 13 11 11 10 10 10 11 12 10 8 11 11 9 7 6 7 6 6 5 7 7 6 6 6 6 6 5 5 5 5
10 11 10 9 7 10 11 12 13 12 13 12 12 12 12 9 10 10 10 11 11 14 11 11 12 12 8 6 6 5 5 5 5 5 5 5 5 5 6 5 5 4 4 5
9 10 10 11 11 13 13 13 12 12 12 11 11 10 10 9 8 9 8 12 11 15 9 11 13 9 6 6 6 6 5 5 4 4 5 4 4 4 4 5 5 4 4 4
10 10 11 12 13 17 15 15 14 13 10 9 9 9 8 9 8 9 9 13 13 9 12 13 11 7 6 6 6 6 5 4 4 4 4 4 4 4 4 4 4 4 4 3
11 11 16 14 15 14 13 13 12 10 9 9 8 8 9 9 8 9 13 10 10 14 14 13 9 8 8 6 6 6 5 5 5 5 4 4 4 4 4 3 4 4 4 4
11 11 14 14 12 12 10 10 10 9 8 9 9 10 10 10 9 10 11 13 14 13 13 9 8 8 7 7 6 5 5 5 5 4 4 4 4 4 5 4 3 3 3 4
10 11 12 12 12 12 11 10 10 8 8 9 9 9 10 11 10 12 13 13 13 11 9 8 8 8 7 6 5 5 4 4 4 4 4 4 4 5 5 4 4 4 3 4
10 11 12 12 12 11 11 10 8 7 9 10 10 11 11 11 11 12 10 12 9 8 7 8 8 8 7 5 4 4 4 4 4 4 5 5 5 5 5 6 5 4 4 3